Time,TemperatureF,DewpointF,PressureIn,WindDirection,WindDirectionDegrees,WindSpeedMPH,WindSpeedGustMPH,Humidity,HourlyPrecipIn,Conditions,Clouds,dailyrainin,SoftwareType,DateUTC
2013-04-04 00:03:00,32.0,15.0,-100.00,East,80,3.0,7.0,48,0.00,,,-99.99,,2013-04-04 04:03:00,
2013-04-04 00:12:00,32.0,15.0,-100.00,ENE,75,4.0,7.0,47,0.00,,,-99.99,,2013-04-04 04:12:00,
2013-04-04 00:23:00,32.0,15.0,-100.00,East,80,4.0,7.0,48,0.00,,,-99.99,,2013-04-04 04:23:00,
2013-04-04 00:33:00,32.0,14.0,-100.00,East,90,4.0,9.0,47,0.00,,,-99.99,,2013-04-04 04:33:00,
2013-04-04 00:43:00,32.0,14.0,-100.00,East,90,4.0,9.0,47,0.00,,,-99.99,,2013-04-04 04:43:00,
2013-04-04 00:52:00,32.0,14.0,-100.00,ENE,75,4.0,7.0,46,0.00,,,-99.99,,2013-04-04 04:52:00,
2013-04-04 01:02:00,32.0,14.0,-100.00,ENE,75,4.0,7.0,46,0.00,,,-99.99,,2013-04-04 05:02:00,
2013-04-04 01:13:00,32.0,14.0,-100.00,East,90,4.0,9.0,47,0.00,,,-99.99,,2013-04-04 05:13:00,
2013-04-04 01:23:00,32.0,15.0,-100.00,SE,125,4.0,11.0,49,0.00,,,-99.99,,2013-04-04 05:23:00,
2013-04-04 01:32:00,32.0,15.0,-100.00,ESE,120,6.0,11.0,49,0.00,,,-99.99,,2013-04-04 05:32:00,
2013-04-04 01:42:00,32.0,15.0,-100.00,ESE,120,6.0,11.0,49,0.00,,,-99.99,,2013-04-04 05:42:00,
2013-04-04 01:52:00,31.0,15.0,-100.00,East,100,6.0,9.0,49,0.00,,,-99.99,,2013-04-04 05:52:00,
2013-04-04 02:02:00,31.0,15.0,-100.00,SE,130,4.0,6.0,50,0.00,,,-99.99,,2013-04-04 06:02:00,
2013-04-04 02:12:00,31.0,15.0,-100.00,SE,130,3.0,6.0,50,0.00,,,-99.99,,2013-04-04 06:12:00,
2013-04-04 02:22:00,31.0,15.0,-100.00,SE,125,2.0,5.0,51,0.00,,,-99.99,,2013-04-04 06:22:00,
2013-04-04 02:32:00,31.0,16.0,-100.00,SE,125,2.0,6.0,53,0.00,,,-99.99,,2013-04-04 06:32:00,
2013-04-04 02:42:00,31.0,16.0,-100.00,SE,125,2.0,5.0,54,0.00,,,-99.99,,2013-04-04 06:42:00,
2013-04-04 02:52:00,30.0,16.0,-100.00,SE,140,3.0,5.0,54,0.00,,,-99.99,,2013-04-04 06:52:00,
2013-04-04 03:02:00,30.0,16.0,-100.00,SE,140,3.0,5.0,54,0.00,,,-99.99,,2013-04-04 07:02:00,
2013-04-04 03:12:00,30.0,15.0,-100.00,SE,130,3.0,5.0,53,0.00,,,-99.99,,2013-04-04 07:12:00,
2013-04-04 03:22:00,31.0,15.0,-100.00,SE,125,2.0,6.0,52,0.00,,,-99.99,,2013-04-04 07:22:00,
2013-04-04 03:32:00,31.0,15.0,-100.00,SE,125,2.0,4.0,52,0.00,,,-99.99,,2013-04-04 07:32:00,
2013-04-04 03:43:00,30.0,15.0,-100.00,SE,135,1.0,4.0,52,0.00,,,-99.99,,2013-04-04 07:43:00,
2013-04-04 03:52:00,30.0,15.0,-100.00,SE,125,2.0,6.0,52,0.00,,,-99.99,,2013-04-04 07:52:00,
2013-04-04 04:02:00,30.0,15.0,-100.00,SE,125,2.0,5.0,52,0.00,,,-99.99,,2013-04-04 08:02:00,
2013-04-04 04:12:00,30.0,15.0,-100.00,ESE,105,2.0,6.0,52,0.00,,,-99.99,,2013-04-04 08:12:00,
2013-04-04 04:23:00,30.0,15.0,-100.00,ESE,105,1.0,4.0,53,0.00,,,-99.99,,2013-04-04 08:23:00,
2013-04-04 04:32:00,30.0,15.0,-100.00,ESE,120,1.0,4.0,53,0.00,,,-99.99,,2013-04-04 08:32:00,
2013-04-04 04:43:00,30.0,16.0,-100.00,ESE,120,2.0,3.0,53,0.00,,,-99.99,,2013-04-04 08:43:00,
2013-04-04 04:52:00,30.0,16.0,-100.00,SE,125,2.0,5.0,54,0.00,,,-99.99,,2013-04-04 08:52:00,
2013-04-04 05:03:00,30.0,16.0,-100.00,SE,130,1.0,4.0,55,0.00,,,-99.99,,2013-04-04 09:03:00,
2013-04-04 05:12:00,30.0,16.0,-100.00,ENE,75,1.0,4.0,55,0.00,,,-99.99,,2013-04-04 09:12:00,
2013-04-04 05:22:00,30.0,16.0,-100.00,East,90,2.0,4.0,55,0.00,,,-99.99,,2013-04-04 09:22:00,
2013-04-04 05:34:00,30.0,16.0,-100.00,East,100,1.0,3.0,55,0.00,,,-99.99,,2013-04-04 09:34:00,
2013-04-04 05:43:00,29.0,16.0,-100.00,East,95,1.0,4.0,56,0.00,,,-99.99,,2013-04-04 09:43:00,
2013-04-04 05:53:00,29.0,16.0,-100.00,East,95,2.0,4.0,56,0.00,,,-99.99,,2013-04-04 09:53:00,
2013-04-04 06:04:00,29.0,16.0,-100.00,ESE,115,2.0,4.0,57,0.00,,,-99.99,,2013-04-04 10:04:00,
2013-04-04 06:12:00,29.0,16.0,-100.00,East,85,3.0,4.0,55,0.00,,,-99.99,,2013-04-04 10:12:00,
2013-04-04 06:24:00,29.0,15.0,-100.00,ENE,60,2.0,5.0,54,0.00,,,-99.99,,2013-04-04 10:24:00,
2013-04-04 06:33:00,29.0,16.0,-100.00,East,100,2.0,6.0,55,0.00,,,-99.99,,2013-04-04 10:33:00,
2013-04-04 06:42:00,29.0,15.0,-100.00,East,80,2.0,4.0,55,0.00,,,-99.99,,2013-04-04 10:42:00,
2013-04-04 06:53:00,29.0,15.0,-100.00,East,95,2.0,6.0,56,0.00,,,-99.99,,2013-04-04 10:53:00,
2013-04-04 07:03:00,29.0,15.0,-100.00,ESE,105,2.0,5.0,56,0.00,,,-99.99,,2013-04-04 11:03:00,
2013-04-04 07:12:00,29.0,15.0,-100.00,East,95,2.0,4.0,56,0.00,,,-99.99,,2013-04-04 11:12:00,
2013-04-04 07:22:00,29.0,15.0,-100.00,East,80,2.0,5.0,56,0.00,,,-99.99,,2013-04-04 11:22:00,
2013-04-04 07:33:00,29.0,15.0,-100.00,East,80,2.0,4.0,56,0.00,,,-99.99,,2013-04-04 11:33:00,
2013-04-04 07:42:00,29.0,15.0,-100.00,East,100,2.0,6.0,56,0.00,,,-99.99,,2013-04-04 11:42:00,
2013-04-04 07:53:00,29.0,15.0,-100.00,East,95,3.0,6.0,54,0.00,,,-99.99,,2013-04-04 11:53:00,
2013-04-04 08:03:00,29.0,15.0,-100.00,East,95,3.0,5.0,54,0.00,,,-99.99,,2013-04-04 12:03:00,
2013-04-04 08:12:00,29.0,15.0,-100.00,East,95,3.0,5.0,54,0.00,,,-99.99,,2013-04-04 12:12:00,
2013-04-04 08:22:00,30.0,16.0,-100.00,East,100,2.0,7.0,54,0.00,,,-99.99,,2013-04-04 12:22:00,
2013-04-04 08:33:00,30.0,16.0,-100.00,ESE,105,3.0,6.0,53,0.00,,,-99.99,,2013-04-04 12:33:00,
2013-04-04 08:43:00,31.0,16.0,-100.00,ESE,105,4.0,7.0,55,0.00,,,-99.99,,2013-04-04 12:43:00,
2013-04-04 08:53:00,31.0,17.0,-100.00,ESE,115,3.0,6.0,55,0.00,,,-99.99,,2013-04-04 12:53:00,
2013-04-04 09:02:00,31.0,17.0,-100.00,ESE,120,3.0,6.0,55,0.00,,,-99.99,,2013-04-04 13:02:00,
2013-04-04 09:12:00,32.0,18.0,-100.00,ESE,115,2.0,6.0,55,0.00,,,-99.99,,2013-04-04 13:12:00,
2013-04-04 09:22:00,32.0,18.0,-100.00,ESE,120,3.0,6.0,54,0.00,,,-99.99,,2013-04-04 13:22:00,
2013-04-04 09:33:00,33.0,18.0,-100.00,SE,125,2.0,6.0,52,0.00,,,-99.99,,2013-04-04 13:33:00,
2013-04-04 09:42:00,34.0,17.0,-100.00,SE,125,4.0,7.0,50,0.00,,,-99.99,,2013-04-04 13:42:00,
2013-04-04 09:52:00,34.0,17.0,-100.00,ESE,115,4.0,7.0,48,0.00,,,-99.99,,2013-04-04 13:52:00,
2013-04-04 10:03:00,34.0,17.0,-100.00,SE,125,4.0,7.0,49,0.00,,,-99.99,,2013-04-04 14:03:00,
2013-04-04 10:13:00,35.0,17.0,-100.00,ESE,115,5.0,9.0,46,0.00,,,-99.99,,2013-04-04 14:13:00,
2013-04-04 10:22:00,35.0,17.0,-100.00,ESE,115,5.0,9.0,46,0.00,,,-99.99,,2013-04-04 14:22:00,
2013-04-04 10:33:00,35.0,17.0,-100.00,ESE,115,5.0,9.0,46,0.00,,,-99.99,,2013-04-04 14:33:00,
2013-04-04 10:43:00,38.0,16.0,-100.00,ESE,115,4.0,9.0,39,0.00,,,-99.99,,2013-04-04 14:43:00,
2013-04-04 10:52:00,39.0,15.0,-100.00,SE,145,5.0,9.0,36,0.00,,,-99.99,,2013-04-04 14:52:00,
2013-04-04 11:03:00,40.0,16.0,-100.00,ESE,115,4.0,10.0,38,0.00,,,-99.99,,2013-04-04 15:03:00,
2013-04-04 11:13:00,41.0,17.0,-100.00,South,180,4.0,9.0,37,0.00,,,-99.99,,2013-04-04 15:13:00,
2013-04-04 11:23:00,41.0,16.0,-100.00,SSE,165,4.0,9.0,36,0.00,,,-99.99,,2013-04-04 15:23:00,
2013-04-04 11:33:00,43.0,17.0,-100.00,SSW,195,1.0,6.0,34,0.00,,,-99.99,,2013-04-04 15:33:00,
2013-04-04 11:43:00,43.0,16.0,-100.00,SE,145,4.0,6.0,32,0.00,,,-99.99,,2013-04-04 15:43:00,
2013-04-04 11:53:00,44.0,16.0,-100.00,ESE,120,1.0,7.0,32,0.00,,,-99.99,,2013-04-04 15:53:00,
2013-04-04 12:03:00,44.0,15.0,-100.00,ESE,105,1.0,9.0,30,0.00,,,-99.99,,2013-04-04 16:03:00,
2013-04-04 12:12:00,44.0,15.0,-100.00,SE,130,3.0,6.0,30,0.00,,,-99.99,,2013-04-04 16:12:00,
2013-04-04 12:24:00,46.0,14.0,-100.00,SE,145,2.0,6.0,27,0.00,,,-99.99,,2013-04-04 16:24:00,
2013-04-04 12:33:00,46.0,15.0,-100.00,ESE,120,3.0,7.0,28,0.00,,,-99.99,,2013-04-04 16:33:00,
2013-04-04 12:42:00,47.0,14.0,-100.00,SSE,165,4.0,7.0,25,0.00,,,-99.99,,2013-04-04 16:42:00,
2013-04-04 12:53:00,48.0,14.0,-100.00,SSE,165,4.0,7.0,25,0.00,,,-99.99,,2013-04-04 16:53:00,
2013-04-04 13:03:00,47.0,14.0,-100.00,ESE,120,6.0,9.0,25,0.00,,,-99.99,,2013-04-04 17:03:00,
2013-04-04 13:13:00,48.0,13.0,-100.00,East,95,4.0,9.0,24,0.00,,,-99.99,,2013-04-04 17:13:00,
2013-04-04 13:23:00,48.0,14.0,-100.00,SSE,160,6.0,9.0,24,0.00,,,-99.99,,2013-04-04 17:23:00,
2013-04-04 13:33:00,49.0,12.0,-100.00,South,175,6.0,10.0,22,0.00,,,-99.99,,2013-04-04 17:33:00,
2013-04-04 13:42:00,50.0,13.0,-100.00,East,100,3.0,8.0,22,0.00,,,-99.99,,2013-04-04 17:42:00,
2013-04-04 13:52:00,50.0,11.0,-100.00,ESE,120,2.0,11.0,20,0.00,,,-99.99,,2013-04-04 17:52:00,
2013-04-04 14:02:00,50.0,8.0,-100.00,SSW,210,5.0,11.0,18,0.00,,,-99.99,,2013-04-04 18:02:00,
2013-04-04 14:12:00,50.0,4.0,-100.00,South,190,3.0,12.0,14,0.00,,,-99.99,,2013-04-04 18:12:00,
2013-04-04 14:23:00,51.0,9.0,-100.00,SE,125,4.0,9.0,17,0.00,,,-99.99,,2013-04-04 18:23:00,
2013-04-04 14:32:00,52.0,4.0,-100.00,South,170,6.0,11.0,13,0.00,,,-99.99,,2013-04-04 18:32:00,
2013-04-04 14:43:00,51.0,10.0,-100.00,SSW,200,6.0,12.0,18,0.00,,,-99.99,,2013-04-04 18:43:00,
2013-04-04 14:52:00,52.0,12.0,-100.00,South,170,6.0,11.0,20,0.00,,,-99.99,,2013-04-04 18:52:00,
2013-04-04 15:02:00,53.0,11.0,-100.00,West,275,1.0,11.0,17,0.00,,,-99.99,,2013-04-04 19:02:00,
2013-04-04 15:12:00,52.0,11.0,-100.00,SSW,210,6.0,9.0,19,0.00,,,-99.99,,2013-04-04 19:12:00,
2013-04-04 15:22:00,52.0,9.0,-100.00,SE,145,4.0,9.0,17,0.00,,,-99.99,,2013-04-04 19:22:00,
2013-04-04 15:33:00,53.0,12.0,-100.00,SSE,165,2.0,3.0,18,0.00,,,-99.99,,2013-04-04 19:33:00,
2013-04-04 15:42:00,54.0,12.0,-100.00,SSW,195,4.0,6.0,18,0.00,,,-99.99,,2013-04-04 19:42:00,
2013-04-04 15:52:00,55.0,13.0,-100.00,South,175,2.0,9.0,19,0.00,,,-99.99,,2013-04-04 19:52:00,
2013-04-04 16:04:00,54.0,12.0,-100.00,SW,225,5.0,9.0,17,0.00,,,-99.99,,2013-04-04 20:04:00,
2013-04-04 16:12:00,54.0,12.0,-100.00,SW,220,4.0,8.0,18,0.00,,,-99.99,,2013-04-04 20:12:00,
2013-04-04 16:23:00,56.0,13.0,-100.00,West,275,4.0,10.0,17,0.00,,,-99.99,,2013-04-04 20:23:00,
2013-04-04 16:32:00,56.0,12.0,-100.00,South,175,1.0,9.0,17,0.00,,,-99.99,,2013-04-04 20:32:00,
2013-04-04 16:42:00,58.0,11.0,-100.00,WSW,240,1.0,7.0,15,0.00,,,-99.99,,2013-04-04 20:42:00,
2013-04-04 16:52:00,57.0,10.0,-100.00,NW,315,2.0,6.0,14,0.00,,,-99.99,,2013-04-04 20:52:00,
2013-04-04 17:02:00,56.0,12.0,-100.00,SSE,165,3.0,9.0,17,0.00,,,-99.99,,2013-04-04 21:02:00,
2013-04-04 17:12:00,57.0,8.0,-100.00,SW,235,4.0,7.0,13,0.00,,,-99.99,,2013-04-04 21:12:00,
2013-04-04 17:22:00,57.0,11.0,-100.00,SSE,165,1.0,7.0,16,0.00,,,-99.99,,2013-04-04 21:22:00,
2013-04-04 17:33:00,56.0,12.0,-100.00,SSW,210,4.0,7.0,16,0.00,,,-99.99,,2013-04-04 21:33:00,
2013-04-04 17:43:00,58.0,15.0,-100.00,South,180,1.0,6.0,17,0.00,,,-99.99,,2013-04-04 21:43:00,
2013-04-04 17:53:00,57.0,12.0,-100.00,West,265,2.0,8.0,16,0.00,,,-99.99,,2013-04-04 21:53:00,
2013-04-04 18:04:00,58.0,14.0,-100.00,NNE,20,1.0,6.0,17,0.00,,,-99.99,,2013-04-04 22:04:00,
2013-04-04 18:12:00,56.0,13.0,-100.00,WSW,245,4.0,9.0,18,0.00,,,-99.99,,2013-04-04 22:12:00,
2013-04-04 18:23:00,57.0,11.0,-100.00,WSW,255,3.0,6.0,15,0.00,,,-99.99,,2013-04-04 22:23:00,
2013-04-04 18:33:00,56.0,11.0,-100.00,SW,235,3.0,7.0,16,0.00,,,-99.99,,2013-04-04 22:33:00,
2013-04-04 18:42:00,55.0,12.0,-100.00,SSW,195,4.0,10.0,17,0.00,,,-99.99,,2013-04-04 22:42:00,
2013-04-04 18:53:00,55.0,12.0,-100.00,SSW,195,4.0,10.0,17,0.00,,,-99.99,,2013-04-04 22:53:00,
2013-04-04 19:03:00,55.0,12.0,-100.00,SSW,195,4.0,10.0,17,0.00,,,-99.99,,2013-04-04 23:03:00,
2013-04-04 19:12:00,55.0,12.0,-100.00,SSW,195,4.0,10.0,17,0.00,,,-99.99,,2013-04-04 23:12:00,
2013-04-04 19:22:00,55.0,12.0,-100.00,SSW,195,4.0,10.0,17,0.00,,,-99.99,,2013-04-04 23:22:00,
2013-04-04 19:43:00,53.0,12.0,-100.00,WSW,245,4.0,8.0,19,0.00,,,-99.99,,2013-04-04 23:43:00,
2013-04-04 19:53:00,53.0,11.0,-100.00,WSW,240,3.0,6.0,18,0.00,,,-99.99,,2013-04-04 23:53:00,
2013-04-04 20:03:00,52.0,13.0,-100.00,WSW,245,2.0,4.0,20,0.00,,,-99.99,,2013-04-05 00:03:00,
2013-04-04 20:12:00,52.0,13.0,-100.00,WSW,245,1.0,3.0,20,0.00,,,-99.99,,2013-04-05 00:12:00,
2013-04-04 20:22:00,50.0,13.0,-100.00,WSW,240,0.0,2.0,22,0.00,,,-99.99,,2013-04-05 00:22:00,
2013-04-04 20:33:00,49.0,14.0,-100.00,SW,235,0.0,2.0,23,0.00,,,-99.99,,2013-04-05 00:33:00,
2013-04-04 20:42:00,48.0,15.0,-100.00,SW,230,1.0,2.0,25,0.00,,,-99.99,,2013-04-05 00:42:00,
2013-04-04 20:52:00,47.0,16.0,-100.00,SW,220,1.0,2.0,28,0.00,,,-99.99,,2013-04-05 00:52:00,
2013-04-04 21:02:00,47.0,16.0,-100.00,WSW,245,0.0,2.0,27,0.00,,,-99.99,,2013-04-05 01:02:00,
2013-04-04 21:12:00,46.0,16.0,-100.00,NW,305,0.0,1.0,29,0.00,,,-99.99,,2013-04-05 01:12:00,
2013-04-04 21:22:00,46.0,17.0,-100.00,NW,310,0.0,1.0,30,0.00,,,-99.99,,2013-04-05 01:22:00,
2013-04-04 21:32:00,46.0,17.0,-100.00,WNW,295,1.0,4.0,30,0.00,,,-99.99,,2013-04-05 01:32:00,
2013-04-04 21:42:00,45.0,17.0,-100.00,WNW,290,0.0,1.0,32,0.00,,,-99.99,,2013-04-05 01:42:00,
2013-04-04 21:52:00,44.0,17.0,-100.00,WNW,285,0.0,1.0,32,0.00,,,-99.99,,2013-04-05 01:52:00,
2013-04-04 22:03:00,44.0,17.0,-100.00,NW,305,0.0,0.0,33,0.00,,,-99.99,,2013-04-05 02:03:00,
2013-04-04 22:12:00,43.0,18.0,-100.00,NW,310,0.0,0.0,35,0.00,,,-99.99,,2013-04-05 02:12:00,
2013-04-04 22:22:00,43.0,20.0,-100.00,North,10,0.0,1.0,39,0.00,,,-99.99,,2013-04-05 02:22:00,
2013-04-04 22:32:00,42.0,20.0,-100.00,North,0,0.0,3.0,41,0.00,,,-99.99,,2013-04-05 02:32:00,
2013-04-04 22:42:00,41.0,22.0,-100.00,SE,140,1.0,3.0,44,0.00,,,-99.99,,2013-04-05 02:42:00,
2013-04-04 22:52:00,41.0,21.0,-100.00,North,0,0.0,3.0,44,0.00,,,-99.99,,2013-04-05 02:52:00,
2013-04-04 23:02:00,41.0,20.0,-100.00,NW,325,0.0,0.0,42,0.00,,,-99.99,,2013-04-05 03:02:00,
2013-04-04 23:12:00,41.0,22.0,-100.00,SE,140,1.0,3.0,46,0.00,,,-99.99,,2013-04-05 03:12:00,
2013-04-04 23:22:00,40.0,22.0,-100.00,ESE,120,0.0,2.0,47,0.00,,,-99.99,,2013-04-05 03:22:00,
2013-04-04 23:32:00,40.0,22.0,-100.00,SE,130,1.0,2.0,47,0.00,,,-99.99,,2013-04-05 03:32:00,
2013-04-04 23:43:00,40.0,22.0,-100.00,SE,130,1.0,2.0,47,0.00,,,-99.99,,2013-04-05 03:43:00,
2013-04-04 23:53:00,40.0,21.0,-100.00,SE,145,0.0,1.0,46,0.00,,,-99.99,,2013-04-05 03:53:00,